Location: LDNL
(36.4545°S, 141.6685°E)
Time: 08:44:54
(UTC+11:00)

Courier 1B - Pass Details

Date: 07 February 2023
Orbit: 962 x 1209 km, 28.3° (Epoch: 21 March)

Event Time Altitude Azimuth Distance (km) Brightness Sun altitude
Exits shadow 04:22:04 36° 12° (NNE) 1,821 8.6 -26.5°
Drops below altitude 10° 04:27:42 10° 53° (NE) 3,148 10.2 -25.7°
Sets 04:30:46 0° 60° (ENE) 4,106 10.9 -25.3°
